Retour au catalogue

NILESAT 301

ActifCommunicationsGEO
NORAD 52817·PAYLOAD·🇪🇬 Egypt

Lancé Jun 8, 2022 depuis Cape Canaveral Space Force Station

Loading…

TLE

FraisSource: Space-Track

Époque: Sep 14, 2026, 22:19 UTC

1 52817U 22061A   26257.93014744 -.00000065  00000-0  00000-0 0  9990
2 52817   0.0556   4.7164 0001293 140.2748 176.7559  1.00270646 15635

Suivez NILESAT 301 en temps réel avec AllMySat

Download on the App Store